Terminal Aerodrome Forecast
Issued by NWS Key West, FL

Home | Current Version | Previous Version | Text Only | Print | Product List | Glossary On
Versions: 1 2 3 4 5 6 7 8 9 10 11 12 13 14 15 16 17 18 19 20 21 22 23 24 25 26 27 28 29 30 31 32 33 34 35 36 37 38 39 40
000
FTUS42 KKEY 201100 AAA
TAFEYW
TAF AMD
KEYW 201134Z 2012/2106 14006KT P6SM VCTS SCT024CB SCT050 OVC250
     FM201600 20005KT P6SM VCTS SCT024CB SCT050 OVC250
     FM202100 28006KT P6SM SCT025 SCT050 BKN250
     FM210300 VRB04KT P6SM SCT020 BKN050=

USA.gov is the U.S. government's official web portal to all federal, state and local government web resources and services.